Tracking 29892 objects as of 21-Nov-2024
HD Live streaming from Space Station
objects crossing your sky now

FORMOSAT7-6/COSMIC2-6

Track FORMOSAT7-6/COSMIC2-6 now!
10-day predictions


NORAD ID: 44353
Int'l Code: 2019-036Q
Perigee: 539.3 km
Apogee: 540.1 km
Inclination: 24.0 °
Period: 95.3 minutes
Semi major axis: 6910 km
RCS: Unknown
Launch date: June 25, 2019
Source: Taiwan (Republic of China) (ROC)
Launch site: AIR FORCE EASTERN TEST RANGE (AFETR)
Your satellite tracking list
Your tracking list is empty




NASA's NSSDC Master Catalog

Two Line Element Set (TLE):
1 44353U 19036Q   24325.23023061  .00012158  00000-0  68382-3 0  9998
2 44353  23.9994 271.2005 0000583 211.0244 149.0225 15.11193570295433
Source of the keplerian elements: AFSPC